Hourly Data Report for October 14, 2019

All times are specified in Local Standard Time (LST). Add 1 hour to adjust for Daylight Saving Time where and when it is observed.

CORAL HARBOUR A
NUNAVUT
Current Station Operator: NAVCAN

64°11'36.000" N
83°21'34.000" W
62.20 m
2301002
71915
YZS

Download Data

Hourly Data (October 2019)
Hourly Data Report for October 14, 2019
TIME Temp Definition
°C
Dew Point Definition
°C
Rel Hum Definition
%
Wind Dir Definition
10's deg

Wind Spd Definition
km/h
Visibility Definition
km
Stn Press Definition
kPa
Hmdx Definition


Wind Chill Definition


Weather Definition


00:00 -1.9 -3.6 88 8 6 24.1 100.98   -4 Snow
01:00 -2.2 -3.8 89 1 3 24.1 100.97   -3 Snow
02:00 -2.0 -3.5 90 8 4 24.1 100.99   -3 Snow
03:00 -2.2 -3.5 91 8 8 24.1 100.95   -5 Snow
04:00 -2.5 -3.4 93 3 10 24.1 100.96   -6 Snow
05:00 -2.8 -3.8 92 4 10 24.1 100.93   -7 Snow
06:00 -3.4 -4.8 90 4 9 24.1 100.91   -7 Snow
07:00 -4.0 -4.9 93 4 12 24.1 100.90   -9 Snow
08:00 -3.4 -4.4 92 4 10 24.1 100.92   -7 LegendNANA
09:00 -3.7 -4.6 94 1 13 12.9 100.91   -9 Snow
10:00 -3.0 -4.1 92 2 9 24.1 100.90   -7 Cloudy
11:00 -2.3 -3.5 92 5 8 24.1 100.89   -5 LegendNANA
12:00 -1.3 -2.5 92 1 7 19.3 100.84   -4 Snow
13:00 -1.0 -3.0 87 9 9 24.1 100.83   -4 Snow
14:00 -0.8 -2.8 86 6 5 24.1 100.84   -2 Snow
15:00 -0.6 -2.6 86 7 18 24.1 100.82   -6 LegendNANA
16:00 -0.9 -2.9 86 7 15 24.1 100.85   -6 Cloudy
17:00 -0.6 -2.5 87 5 13 24.1 100.85   -5 LegendNANA
18:00 -0.9 -2.5 89 6 18 24.1 100.87   -6 LegendNANA
19:00 -1.0 -2.6 89 7 16 24.1 100.87   -6 Mostly Cloudy
20:00 -2.1 -3.2 92 5 10 24.1 100.88   -6 LegendNANA
21:00 -4.1 -5.1 93 1 13 24.1 100.85   -9 LegendNANA
22:00 -3.9 -4.9 93 1 9 24.1 100.84   -8 Mostly Cloudy
23:00 -4.3 -5.5 92 36 8 24.1 100.82   -8 LegendNANA

Notes on Data Quality.

Legend

  • E = Estimated
  • M = Missing
  • NA = Not Available
Date modified: